(488225) = 2004 VU58 = 2011 BL114 = 2012 HW65 = 2016 AQ13

Discovered at Catalina on 2004-11-09 by CSS.

Orbit

Orbit type: Main Belt

Note: WebGL enabled browser required.

epoch2022-01-21.0
epoch JD2459600.5
perihelion date2018-09-12.47730
perihelion JD2458373.97730
argument of perihelion (°)16.18894
ascending node (°)276.62474
inclination (°)7.97082
eccentricity0.0157763
perihelion distance (AU)2.9424730
Tisserand w.r.t. Jupiter3.2
ΔV w.r.t. Earth (km/sec)10.9
semimajor axis (AU)2.9896386
mean anomaly (°)233.85756
mean daily motion (°/day)0.19066710
aphelion distance (AU)3.037
period (years)5.17
P-vector [x]0.38505995
P-vector [y]-0.86137185
P-vector [z]-0.33131158
Q-vector [x]0.91255452
Q-vector [y]0.30178634
Q-vector [z]0.27598777
absolute magnitude16.03
phase slope0.15
uncertainty0
referenceMPO 700701
observations used189
oppositions12
arc length (days)7737
first opposition used2001
last opposition used2022
residual rms (arc-secs)0.66
perturbers coarse indicatorM-v
perturbers precise indicator003Ek
first observation date used2001-02-20.0
last observation date used2022-04-28.0
computer namePan
JD of orbit computation2457807.394083
perihelion JD uncertainty (days)5.8207E-04
argument of perihelion uncertainty (°)1.1312E-04
ascending node uncertainty (°)2.4837E-05
inclination uncertainty (°)3.4415E-06
eccentricity uncertainty 3.1961E-08
perihelion distance uncertainty (AU)9.5308E-08
Minimum Orbit Intersection Distances (in AU)
for orbit epoch: 2458200.5, reference: MPO409268
Mercury2.47785
Venus2.21232
Earth1.92261
Mars1.39791
Jupiter2.0304
Saturn6.049
Uranus15.2217
Neptune26.8723

Observations

193 total observations over interval: 2001 02 20.218150 – 2022 04 28.312289
These data are available for download (format description).

Date (UT) J2000 RA J2000 Dec Magn Location Ref
2001 02 20.218150 09 42 48.986 +03 58 50.78 20.55 V 645 – Apache Point-Sloan Digital Sky Survey MPS 708364
2001 02 20.221622 09 42 48.803 +03 58 51.34 21.48   645 – Apache Point-Sloan Digital Sky Survey MPS 708364
2004 11 09.37991 03 13 24.95 +26 46 29.6 19.8 R 703 – Catalina Sky Survey MPS 119397
2004 11 09.39352 03 13 24.12 +26 46 24.8 19.3 R 703 – Catalina Sky Survey MPS 119397
2004 11 09.40710 03 13 23.43 +26 46 22.5 19.2 R 703 – Catalina Sky Survey MPS 119397
2004 11 09.42068 03 13 22.65 +26 46 18.3 19.9 R 703 – Catalina Sky Survey MPS 119397
2004 11 11.13178 03 11 52.02 +26 38 08.1 20.3 V 691 – Steward Observatory, Kitt Peak-Spacewatch MPS 119397
2004 11 11.15917 03 11 50.52 +26 38 00.1 20.5 V 691 – Steward Observatory, Kitt Peak-Spacewatch MPS 119397
2004 11 11.18831 03 11 48.95 +26 37 51.8 20.4 V 691 – Steward Observatory, Kitt Peak-Spacewatch MPS 119397
2009 10 23.41266 02 12 28.85 +24 19 15.3 20.3 V 291 – LPL/Spacewatch II MPS 708364
2009 10 23.41687 02 12 28.63 +24 19 14.0 20.3 V 291 – LPL/Spacewatch II MPS 708364
2009 10 23.42087 02 12 28.41 +24 19 13.0 20.4 V 291 – LPL/Spacewatch II MPS 708364
2010 11 16.40094 08 31 33.78 +17 01 15.3 21.6 V G96 – Mt. Lemmon Survey MPS 708364
2010 11 16.40615 08 31 33.85 +17 01 14.1 21.0 V G96 – Mt. Lemmon Survey MPS 708364
2010 11 16.41152 08 31 33.92 +17 01 13.3 21.4 V G96 – Mt. Lemmon Survey MPS 708364
2010 11 16.41686 08 31 34.03 +17 01 12.1 21.3 V G96 – Mt. Lemmon Survey MPS 708364
2010 12 05.43057 08 32 53.23 +16 07 17.2 21.1 V G96 – Mt. Lemmon Survey MPS 708364
2010 12 05.43816 08 32 53.16 +16 07 16.2 20.9 V G96 – Mt. Lemmon Survey MPS 708364
2010 12 05.44576 08 32 53.12 +16 07 15.2 21.1 V G96 – Mt. Lemmon Survey MPS 708364
2010 12 05.45339 08 32 52.98 +16 07 14.1 21.2 V G96 – Mt. Lemmon Survey MPS 708364
2010 12 13.42466 08 30 49.93 +15 52 23.7 21.1 V G96 – Mt. Lemmon Survey MPS 708364
2010 12 13.42990 08 30 49.82 +15 52 22.9 21.3 V G96 – Mt. Lemmon Survey MPS 708364
2010 12 13.43512 08 30 49.71 +15 52 22.4 21.0 V G96 – Mt. Lemmon Survey MPS 708364
2010 12 13.44036 08 30 49.57 +15 52 21.8 21.0 V G96 – Mt. Lemmon Survey MPS 708364
2011 01 23.26552 08 01 15.02 +15 43 08.0 20.2 V G96 – Mt. Lemmon Survey MPS 384118
2011 01 23.27293 08 01 14.62 +15 43 08.4 19.9 V G96 – Mt. Lemmon Survey MPS 384118
2011 01 23.28045 08 01 14.19 +15 43 08.9 20.1 V G96 – Mt. Lemmon Survey MPS 384118
2011 01 23.28791 08 01 13.76 +15 43 09.0 20.3 V G96 – Mt. Lemmon Survey MPS 384118
2011 02 05.22413 07 50 07.98 +15 52 58.0 20.4 V G96 – Mt. Lemmon Survey MPS 384118
2011 02 05.22993 07 50 07.69 +15 52 58.3 20.3 V G96 – Mt. Lemmon Survey MPS 384118
2011 02 05.23576 07 50 07.44 +15 52 58.5 20.3 V G96 – Mt. Lemmon Survey MPS 384118
2011 02 05.24153 07 50 07.15 +15 52 58.9 20.6 V G96 – Mt. Lemmon Survey MPS 384118
2012 01 06.62483 13 17 09.800 -16 47 27.18 22.1 w F51 – Pan-STARRS 1, Haleakala MPS 708364
2012 01 06.63013 13 17 10.055 -16 47 29.52 22.0 w F51 – Pan-STARRS 1, Haleakala MPS 708364
2012 01 06.63542 13 17 10.306 -16 47 31.75 22.0 w F51 – Pan-STARRS 1, Haleakala MPS 708364
2012 01 06.64070 13 17 10.562 -16 47 34.19 21.9 w F51 – Pan-STARRS 1, Haleakala MPS 708364
2012 03 15.51762 13 31 14.936 -21 24 24.55 20.6 r F51 – Pan-STARRS 1, Haleakala MPS 708364
2012 03 15.52760 13 31 14.607 -21 24 24.03 20.4 r F51 – Pan-STARRS 1, Haleakala MPS 708364
2012 03 15.53814 13 31 14.246 -21 24 23.66 20.3 i F51 – Pan-STARRS 1, Haleakala MPS 708364
2012 04 20.56109 13 04 58.51 -19 11 19.4 20.0 V E12 – Siding Spring Survey MPS 424063
2012 04 20.58067 13 04 57.50 -19 11 12.1 20.2 V E12 – Siding Spring Survey MPS 424063
2012 04 20.60044 13 04 56.60 -19 11 05.7 19.6 V E12 – Siding Spring Survey MPS 424063
2012 04 20.62022 13 04 55.59 -19 10 58.8 21.0 V E12 – Siding Spring Survey MPS 424063
2012 04 26.38200 13 00 46.725 -18 36 06.38 20.3 g F51 – Pan-STARRS 1, Haleakala MPS 424063
2012 04 26.39276 13 00 46.257 -18 36 02.47 20.8 g F51 – Pan-STARRS 1, Haleakala MPS 424063
2013 07 01.47441 19 49 34.847 -18 10 54.46 20.0 r F51 – Pan-STARRS 1, Haleakala MPS 708364
2013 07 01.48473 19 49 34.348 -18 10 54.06 20.0 r F51 – Pan-STARRS 1, Haleakala MPS 708364
2013 07 01.50715 19 49 33.230 -18 10 53.11 19.9 i F51 – Pan-STARRS 1, Haleakala MPS 708364
2013 07 16.41880 19 36 48.814 -18 03 34.51 19.4 i F51 – Pan-STARRS 1, Haleakala MPS 708364
2013 07 16.43231 19 36 48.076 -18 03 34.28 19.4 i F51 – Pan-STARRS 1, Haleakala MPS 708364
2013 07 16.44692 19 36 47.276 -18 03 33.91 19.7 r F51 – Pan-STARRS 1, Haleakala MPS 708364
2014 09 20.26551 01 26 36.70 +21 10 00.9 20.3 V 703 – Catalina Sky Survey MPS 708364
2014 09 20.27256 01 26 36.50 +21 09 59.1 20.2 V 703 – Catalina Sky Survey MPS 708364
2014 09 20.28321 01 26 36.03 +21 09 59.8 20.6 V 703 – Catalina Sky Survey MPS 708364
2014 09 20.29026 01 26 35.81 +21 09 57.9 20.6 V 703 – Catalina Sky Survey MPS 708364
2014 10 17.30307 01 06 25.91 +19 27 42.6 20.0 V G96 – Mt. Lemmon Survey MPS 708364
2014 10 17.30831 01 06 25.68 +19 27 41.0 19.8 V G96 – Mt. Lemmon Survey MPS 708365
2014 10 17.31355 01 06 25.42 +19 27 39.1 19.9 V G96 – Mt. Lemmon Survey MPS 708365
2014 10 17.31879 01 06 25.14 +19 27 37.2 19.8 V G96 – Mt. Lemmon Survey MPS 708365
2014 10 17.34843 01 06 23.70 +19 27 26.9 20.7 V G96 – Mt. Lemmon Survey MPS 708365
2014 10 17.35387 01 06 23.40 +19 27 25.1 20.9 V G96 – Mt. Lemmon Survey MPS 708365
2014 10 17.35932 01 06 23.17 +19 27 23.3 21.4 V G96 – Mt. Lemmon Survey MPS 708365
2014 10 17.36476 01 06 22.92 +19 27 21.7 22.6 V G96 – Mt. Lemmon Survey MPS 708365
2014 10 26.27277 00 59 36.12 +18 33 51.4 19.8 V G96 – Mt. Lemmon Survey MPS 708365
2014 10 26.27887 00 59 35.86 +18 33 49.2 20.1 V G96 – Mt. Lemmon Survey MPS 708365
2014 10 26.28496 00 59 35.58 +18 33 46.9 20.1 V G96 – Mt. Lemmon Survey MPS 708365
2014 10 26.29105 00 59 35.30 +18 33 44.5 19.9 V G96 – Mt. Lemmon Survey MPS 708365
2015 12 03.38894 07 35 33.80 +21 03 09.6 20.6 V G96 – Mt. Lemmon Survey MPS 708365
2015 12 03.39653 07 35 33.56 +21 03 08.9 20.3 V G96 – Mt. Lemmon Survey MPS 708365
2015 12 03.40415 07 35 33.39 +21 03 08.6 20.3 V G96 – Mt. Lemmon Survey MPS 708365
2015 12 03.41175 07 35 33.18 +21 03 07.8 20.4 V G96 – Mt. Lemmon Survey MPS 708365
2015 12 14.45537 07 29 22.67 +20 51 09.4 20.8 V G96 – Mt. Lemmon Survey MPS 708365
2015 12 14.46047 07 29 22.52 +20 51 09.0 20.9 V G96 – Mt. Lemmon Survey MPS 708365
2015 12 14.46556 07 29 22.24 +20 51 08.6 21.1 V G96 – Mt. Lemmon Survey MPS 708365
2015 12 14.47067 07 29 22.06 +20 51 08.6 20.8 V G96 – Mt. Lemmon Survey MPS 708365
2016 01 03.31340 07 12 48.94 +20 36 14.3 19.9 V G96 – Mt. Lemmon Survey MPS 665716
2016 01 03.31847 07 12 48.59 +20 36 14.8 19.3 V G96 – Mt. Lemmon Survey MPS 665716
2016 01 03.32355 07 12 48.40 +20 36 14.8 19.6 V G96 – Mt. Lemmon Survey MPS 665716
2016 01 03.32863 07 12 48.05 +20 36 13.7 20.1 V G96 – Mt. Lemmon Survey MPS 665716
2016 01 03.67300 07 12 28.76 +20 35 59.8 20.2 R D29 – Purple Mountain Observatory, XuYi Station MPS 665716
2016 01 03.69116 07 12 27.71 +20 35 59.3 20.6 R D29 – Purple Mountain Observatory, XuYi Station MPS 665716
2016 01 03.70933 07 12 26.67 +20 35 58.8 20.1 R D29 – Purple Mountain Observatory, XuYi Station MPS 665716
2016 01 04.34645 07 11 51.077 +20 35 33.62 20.2 w F51 – Pan-STARRS 1, Haleakala MPS 665716
2016 01 04.35679 07 11 50.483 +20 35 33.24 20.3 w F51 – Pan-STARRS 1, Haleakala MPS 665716
2016 01 04.36717 07 11 49.878 +20 35 32.88 20.2 w F51 – Pan-STARRS 1, Haleakala MPS 665716
2016 01 04.37758 07 11 49.276 +20 35 32.55 20.4 w F51 – Pan-STARRS 1, Haleakala MPS 665716
2016 01 05.51836 07 10 44.770 +20 34 46.77 20.0 w F51 – Pan-STARRS 1, Haleakala MPS 665716
2016 01 05.53191 07 10 43.983 +20 34 46.17 20.0 w F51 – Pan-STARRS 1, Haleakala MPS 665716
2016 01 05.54545 07 10 43.199 +20 34 45.53 19.9 w F51 – Pan-STARRS 1, Haleakala MPS 665716
2016 01 05.55906 07 10 42.411 +20 34 45.05 20.1 w F51 – Pan-STARRS 1, Haleakala MPS 665716
2017 01 28.60002 12 42 25.940 -14 55 18.78 21.1 w F51 – Pan-STARRS 1, Haleakala MPS 762321
2017 01 28.61163 12 42 26.027 -14 55 21.86 21.0 w F51 – Pan-STARRS 1, Haleakala MPS 762321
2017 01 28.62325 12 42 26.111 -14 55 24.96 21.0 w F51 – Pan-STARRS 1, Haleakala MPS 762321
